Location: Newport
(44.6370°N, 124.0520°W)
Time: 01:32:20
(UTC-08:00)

RS-15 - Visible Passes

Search period start: 23 January 2018 00:00
Search period end: 02 February 2018 00:00
Orbit: 1886 x 2158 km, 64.8° (Epoch: 22 January)

Date Brightness Start Highest point End Pass type
(mag) Time Alt. Az. Time Alt. Az. Time Alt. Az.
23 Jan 10.7 05:48:54 10° SE 05:55:29 16° E 06:02:00 10° ENE visible
23 Jan 10.1 19:08:25 10° NW 19:16:39 24° W 19:24:40 10° SSW visible
24 Jan 11.0 05:18:16 10° E 05:20:15 10° E 05:22:13 10° E visible
24 Jan 9.8 18:31:37 10° NW 18:41:12 32° WSW 18:50:26 10° SSW visible
25 Jan 9.6 06:42:52 10° S 06:54:00 42° ESE 07:04:58 10° NE visible
25 Jan 9.4 17:55:07 10° NW 18:05:37 42° WSW 18:15:41 10° S visible
26 Jan 9.9 06:08:09 10° SSE 06:18:23 33° ESE 06:28:29 10° NE visible
27 Jan 10.2 05:33:58 10° SSE 05:42:54 24° E 05:51:43 10° NE visible
27 Jan 10.7 18:58:13 10° WNW 19:04:01 16° W 19:09:44 10° SW visible
28 Jan 10.5 05:00:34 10° SE 05:07:31 17° E 05:14:24 10° ENE visible
28 Jan 8.7 07:05:30 10° SSW 07:17:41 70° ESE 07:29:40 10° NE visible
28 Jan 10.4 18:20:43 10° NW 18:28:42 22° W 18:36:28 10° SW visible
29 Jan 10.7 04:29:05 10° ESE 04:32:16 11° E 04:35:27 10° ENE visible
29 Jan 9.0 06:30:01 10° S 06:41:49 56° ESE 06:53:28 10° NE visible
29 Jan 10.1 17:43:51 10° NW 17:53:15 31° WSW 18:02:19 10° SSW visible
30 Jan 9.3 05:54:51 10° S 06:06:05 44° ESE 06:17:11 10° NE visible
31 Jan 9.7 05:20:04 10° SSE 05:30:28 34° ESE 05:40:43 10° NE visible
01 Feb 10.0 04:45:48 10° SSE 04:54:57 26° E 05:03:59 10° NE visible
01 Feb 8.3 06:53:25 10° SSW 07:05:48 87° ESE 07:17:58 10° NE visible
01 Feb 10.7 18:10:41 10° WNW 18:16:02 15° W 18:21:18 10° WSW visible
